STARLINK-11197, 60186

Orbit data source: Space-Track

STARLINK-11197, 60186 is a payload satellite owned by SpaceX/Seattle (US) in LEO that was launched on Wed, 03 Jul 2024 UTC via an FALCON 9 launch vehicle from the Air Force Eastern Test Range (AFETR). Payloads include a variety of satellites, spacecraft, and rockets equipped with specific instruments for various scientific and technological missions. These include communications satellites like Starlink; space stations such as the ISS; scientific satellites like the Hubble; Earth observation satellites from companies like Planet Labs, Umbra, and HawkEye 360; GPS; miniature CubeSats for education and research; and military/defense satellites.

Loading next visibility...
STARLINK-11197 details
Identifier
60186, 2024-124D
Orbit
LEO
Last TLE update14 hours ago
Origin
Flag of USSpaceX/Seattle (US)
ManufacturerSpaceX/Seattle
MissionOperational spacecraft
Bus & MotorSTARLINK V2M, Unknown motor
Mass730 kg wet, ~700 kg dry
Launch date (UTC)
2024-07-03 (6 months ago)
Launch vehicle
FALCON 9
Launch site
Air Force Eastern Test Range (AFETR)
Object type
Payload
Rocket body
Debris
Shape & HBRUnknown
Radar Cross SectionLarge (>1 m²)

Expand to show TLE details & history

TLE from 14 hours ago
0 STARLINK-11197
1 60186U 24124D   24355.95351817  .00000308  00000-0  73958-5 0  9990
2 60186  53.1591 188.4689 0000873  96.6083 263.5035 15.69719697 28027
Epoch: 2024-12-20T22:53Z
Definitive object data (Epoch: 2024-12-20T22:53:03.969Z)
Latitude0.00001°
Longitude115.19074°
Altitude360.681 km
Speed7.694 km/s
True Right ascension12h 33m 52s
True Declination0° 00' 00"
Sunlit
Object was in daylight at TLE epoch
Visualization TLE readout
Latitude39.8713°
Longitude150.80226°
Altitude362.838 km
Speed7.697 km/s
Apparent Right ascension19h 09m 45s
Apparent Declination3° 20' 20"
Sunlit
Object is in daylight
Visualization observer readout
Local Sidereal Time11:53:33
Azimuth74.949° E
Elevation-12.272°
Doppler factor1
Orbital elements
Apogee altitude360.548 km
Perigee altitude359.372 km
Semi-major axis6,738.097 km
Eccentricity0.0000873
Inclination53.1591°
RAAN188.4689°
Arg. of periapsis96.6083°
True anomaly263.49356°
Mean anomaly263.5035°
Eccentric anomaly263.49853°
Mean motion3.92407 °/min
BSTAR0.0000073958
Orbital period91.74 mins
Loading maneuver chart data...
Loading historical data...
Loading historical data...
Loading historical data...
Loading historical data...
Loading historical data...
Loading historical data...
Loading historical data...

STARLINK-11197 Visibility forecast

Observer location: undefined°, undefined

Span
Click to sort rows by Start time (UTC) header in descending order
Start Az.
Max El. time (UTC)
Max El. Az.
Max El.
End time (UTC)
End Az.
5 mins2024-12-21 15:52:41.360Z231.664° WSW2024-12-21 15:55:41.360Z39.038° NE40.612°2024-12-21 15:57:41.360Z48.314° ENE
4 mins2024-12-21 22:18:41.360Z329.448° NNW2024-12-21 22:19:41.360Z11.094° NNE39.191°2024-12-21 22:22:41.360Z117.815° SE
|